Regional Weather Roundup
Issued by NWS Grand Forks, ND

Home | Current Version | Previous Version | Graphics & Text | Print | Product List | Glossary On
Versions: 1 2 3 4 5 6 7 8 9 10 11 12 13 14 15 16 17 18 19 20 21 22 23 24 25 26 27 28 29 30 31 32 33 34 35 36 37 38 39 40 41 42 43 44 45 46 47 48 49 50
000
ASUS43 KFGF 301531
RWRFGF
PRAIRIE TO PINES  WEATHER ROUNDUP
NATIONAL WEATHER SERVICE EASTERN NORTH DAKOTA/GRAND FORKS ND
900 AM CST FRI JAN 30 2015

 **SATELLITE DATA USED TO AUGMENT SKY COVER AT AUTOMATED STATIONS**
 *****  WEATHER ACROSS EASTERN NORTH DAKOTA  *****

CITY           SKY/WX    TMP DP  RH WIND       PRES   REMARKS
GRAND FORKS    CLOUDY    13   7  77 S16       30.33F WCI  -3
GRAND FRKS AFB CLOUDY    12   7  78 S14       30.31F WCI  -3
GRAND FRKS NWS   N/A     12 N/A N/A S16         N/A  WCI  -4
DEVILS LAKE    CLOUDY    19  18  93 S12       30.18S WCI   7
FARGO          PTCLDY    15   8  73 SE14G23   30.36F WCI   0
WAHPETON ARPT  MOSUNNY   16  10  79 SE13      30.39F WCI   2
$$

 ***** WEATHER ACROSS CENTRAL AND WESTERN NORTH DAKOTA  *****

CITY           SKY/WX    TMP DP  RH WIND       PRES   REMARKS
BISMARCK       CLEAR     19  17  92 SE3       30.20F
MINOT          CLEAR     23  16  74 SW13      30.12R WCI  11
JAMESTOWN      MOCLDY    19  16  88 S18       30.22F WCI   4
MINOT AFB      CLEAR     20  20  98 W3        30.13R
GARRISON         N/A     18  16  92 CALM      30.14S
WILLISTON      CLEAR     21  17  84 CALM      30.17R
DICKINSON      CLEAR     27  20  75 W9        30.12R WCI  18
HETTINGER      CLEAR     23  16  74 W3        30.17R
$$

 *****  OTHER AIRPORT OBSERVATIONS IN OUR AREA  *****

CITY           SKY/WX    TMP DP  RH WIND       PRES   REMARKS
WALHALLA         N/A     12  12 100 S14       30.23F WCI  -3
GRAFTON AIRPOR NOT AVBL
VALLEY CITY AR FLURRIES  18  18 100 S16       30.25F WCI   3
CANDO          CLOUDY    19  18  93 S13       30.17F WCI   7
CAVALIER APRT  PTSUNNY   10   7  85 S14G22    30.25F WCI  -5
GWINNER        SUNNY     19  19 100 S12       30.32F WCI   7
SHEYENNE NWR     N/A     13   9  83 S8        29.95S WCI   2
ROLLA          FAIR      16  16 100 SW14      30.13S WCI   1
 ***** THE ABOVE OBSERVATIONS ARE NON NWS ARE NOT QUALITY
       CONTROLLED AND MAY MIS-REPORT RAIN FOR SNOW...
$$

  *****  WEATHER ACROSS NORTHERN MINNESOTA  *****

CITY           SKY/WX    TMP DP  RH WIND       PRES   REMARKS
FLAG ISLAND    CLOUDY     1  -2  85 S16       30.32F WCI -18
WARROAD        LGT SNOW   3  -2  78 S3        30.34S
ROSEAU         FLURRIES   7   0  72 S12       30.32F WCI  -9
HALLOCK        CLOUDY    10   5  79 S16       30.29F WCI  -7
THF RVR FALLS  CLOUDY    10   7  85 S13       30.32F WCI  -5
BAUDETTE       CLOUDY     0  -5  79 SE5       30.35F WCI -10
WASKISH        CLOUDY     5   1  85 SE3       30.35F
CROOKSTON      CLOUDY    12   7  79 S17       30.35F WCI  -5
STEPHEN NDAWN    N/A     10   5  79 S13         N/A  WCI  -5
GREENBUSH NDAW   N/A      7   3  85 S12         N/A  WCI  -9
$$
  *****  WEATHER ACROSS CENTRAL AND WEST MINNESOTA  *****

CITY           SKY/WX    TMP DP  RH WIND       PRES   REMARKS
FOSSTON        MOCLDY     7   3  85 S13       30.34F WCI  -9
BEMIDJI        MOCLDY     6   2  84 S9        30.34F WCI  -8
PARK RAPIDS    CLOUDY     8   3  80 S7        30.38F WCI  -3
ELBOW LAKE     CLOUDY    11   6  80 SE13      30.41F WCI  -4
WADENA         PTCLDY     9   3  78 S6        30.40F WCI  -1
DETROIT LAKES  MOCLDY    10   7  85 S10       30.37F WCI  -3
MOORHEAD       CLOUDY    14  10  85 SE15      30.38F WCI  -1
FERGUS FALLS   CLOUDY    10   5  79 SE10      30.44F WCI  -3
MORRIS MN      CLOUDY    14   9  79 SE9       30.42F WCI   2
STAPLES        PTSUNNY    9   5  85 S9        30.41F WCI  -5
$$
  *****  WEATHER ELSEWHERE ACROSS MINNESOTA  *****

CITY           SKY/WX    TMP DP  RH WIND       PRES   REMARKS
DULUTH         PTSUNNY    2  -3  80 CALM      30.42S
INTRNTL FALLS  CLOUDY    -5  -9  83 SE3       30.39F
ELY            MOSUNNY   -2  -6  84 SW2       30.41R
CLOQUET        CLOUDY     3  -2  78 CALM      30.43F
WHEATON        CLOUDY    14  10  85 SE10      30.42F WCI   1
BRAINERD       MOSUNNY    8   3  80 S8        30.44F WCI  -4
HIBBING        CLOUDY     0  -6  76 CALM      30.41F
ALEXANDRIA     PTSUNNY   10   5  80 SE6       30.42F WCI   0
SAINT CLOUD    MOSUNNY   11   6  81 S8        30.49S WCI  -1
MINNEAPOLIS    PTSUNNY   12   4  70 S6        30.53S WCI   3
$$

  *****  WEATHER ACROSS SOUTH DAKOTA  *****

CITY           SKY/WX    TMP DP  RH WIND       PRES   REMARKS
SIOUX FALLS    MOSUNNY   21  18  88 S10       30.45F WCI  10
BROOKINGS      NOT AVBL
WATERTOWN      CLEAR     19  16  88 S14       30.34F WCI   6
HURON          CLEAR     20  17  88 SE14G23   30.35F WCI   7
SISSETON         N/A     16  14  92 SE12      30.37F WCI   3
ABERDEEN       CLEAR     21  17  84 S15       30.32F WCI   8
MITCHELL       CLEAR     22  19  89 SE14      30.41F WCI   9
PIERRE         CLEAR     23  20  88 SE9       30.24F WCI  13
MOBRIDGE       CLEAR     22  19  89 SE9       30.19F WCI  12
RAPID CITY     MOCLDY    23  18  81 NW3       30.17S
$$

  *****  SOME WEATHER IN NEARBY STATES *****

CITY           SKY/WX    TMP DP  RH WIND       PRES   REMARKS
GLASGOW MT     FOG       20  18  92 NW10      30.20R VSB 1/4 WCI   9
GREAT FALLS MT CLEAR     23  17  78 SW7       30.20S WCI  15
CHEYENNE WY    MOCLDY    31  23  72 W7        30.18S WCI  24
SCOTTSBLUFF NE CLOUDY    29  24  82 CALM      30.21F
OMAHA NE       MOSUNNY   22  17  81 S8        30.55R WCI  12
DES MOINES IA  MOSUNNY   21  13  71 NE3       30.56R
DAVENPORT IA   SUNNY     19  11  70 N5        30.55R WCI  12
CHICAGO IL     MOSUNNY   22   9  57 N9        30.50F WCI  12
EAU CLAIRE WI  PTSUNNY    8   1  73 CALM      30.52S
LA CROSSE WI   MOSUNNY   14   4  64 N5        30.56R WCI   6
$$

  *****  SOME NATIONAL WEATHER *****

CITY           SKY/WX    TMP DP  RH WIND       PRES   REMARKS
LA GUARDIA NY  CLOUDY    32  26  78 NW16      29.86F WCI  21
RALEIGH NC     MOSUNNY   43  21  41 VRB7G26   30.09R
ATLANTA GA     MOSUNNY   42  26  53 NW21G30   30.30R
NEW ORLEANS LA PTSUNNY   50  39  66 NE20      30.40R
OKLAHOMA CITY  PTSUNNY   38  27  64 NE6       30.52S
ALBUQUERQUE NM LGT SNOW  33  30  88 E14       30.27F VSB 1   WCI  23
SALT LAKE CITY MOCLDY    37  35  92 W3        30.14S
LOS ANGELES CA LGT RAIN  63  48  58 CALM      29.92S
BOISE ID       FOG       28  28 100 CALM      30.27S VSB<1/4
SEATTLE WA     FOG       34  32  92 CALM      30.31S VSB 1/4
$$

*** WEATHER ACROSS MANITOBA...SASKATCHEWAN AND ONTARIO ***
                ***ONTARIO***

CITY           SKY/WX    TMP DP  RH WIND       PRES   REMARKS
GERALDTON      MOSUNNY  -13 -18  77 W3        30.38S
THUNDER BAY    PTSUNNY    0  -8  71 S3        30.49S
SIOUX LOOKOUT  MOCLDY    -8 -13  77 S5        30.35F WCI -19
TORONTO        MOSUNNY   12   3  67 NW33G45   30.16R WCI -10
BIG TROUT LK   CLEAR    -17 -22  76 W8        30.23F WCI -34
PICKLE LAKE    PTCLDY   -15 -22  70 SW5       30.30F WCI -27
DRYDEN         CLOUDY    -8 -13  77 S5        30.35S WCI -19
KENORA         MOCLDY    -6 -11  77 S10       30.31F WCI -23
$$
                *** MANITOBA***

CITY           SKY/WX    TMP DP  RH WIND       PRES   REMARKS
BRANDON        MOCLDY     9   5  85 E6        30.16F WCI  -1
DAUPHIN        FLURRIES  12  10  92 S9        30.14F WCI   0
ISLAND LAKE    FLURRIES  -8 -15  71 S5        30.24  WCI -19
PILOT MOUND      N/A     16  14  93 S16         N/A  WCI   0
THE PAS        FLURRIES   3   0  85 NW5       30.19R WCI  -6
THOMPSON       MOCLDY    -9 -15  77 SW5       30.18F WCI -21
WINNIPEG       LGT SNOW   7   1  78 S17       30.28F DRFTSNOWWCI -12
LYNN LAKE      CLEAR    -13 -17  84 W10       30.16R WCI -32
CHURCHILL      PTCLDY   -17 -26  63 W16       30.08R WCI -41
GILLAM         PTCLDY   -17 -22  76 SW9       30.15F WCI -36
$$
                ***SASKATCHEWAN***

CITY           SKY/WX    TMP DP  RH WIND       PRES   REMARKS
ESTEVAN        NOT AVBL
KINDERSLEY     MOCLDY    14  10  85 W3        30.21R
LLOYDMINSTER   CLOUDY    19  18  93 N12       30.21R WCI   7
PRINCE ALBERT  CLOUDY    12   9  85 NW6       30.22R WCI   3
REGINA         PTCLDY    18  16  93 NW15      30.17S WCI   3
YORKTON        CLOUDY    12  10  92 SW5       30.13R WCI   4
N. BATTLEFORD  CLOUDY    19  18  93 NW9       30.24R FOG     WCI   9
LA RONGE       FLURRIES   1  -4  78 NW7       30.28R WCI -11
SASKATOON      MOCLDY    12  10  92 NW6       30.23R WCI   3
SWIFT CURRENT  FOG       23  23 100 W12       30.18R VSB 1/8 WCI  12
$$
NOTE: THESE ARE AUTOMATED STATIONS WITH LIMITED QUALITY CONTROL
      "FAIR" INDICATES FEW OR NO CLOUDS BELOW 12,000 FEET WITH NO
      SIGNIFICANT WEATHER AND/OR OBSTRUCTIONS TO VISIBILITY.
      SKY/WX - SKY CONDITION AND SIGNIFICANT WEATHER.
      TMP - AIR TEMPERATURE.    DP   - DEWPOINT TEMPERATURE.
      RH  - RELATIVE HUMIDITY.  PRES - PRESSURE.
      HX  - HEAT INDEX.         WCI  - WIND CHILL INDEX.
$



USA.gov is the U.S. government's official web portal to all federal, state and local government web resources and services.